sat.trackr.live / text

‹ back to catalog

JILIN GAOFEN OBJECT A

NORAD 68691 · 2026-080A

PAYLOAD ACTIVE UNKNOWN

§ Identity

Operator
Country
PRC
Launch date
2026-04-14
Launch site
JSC
Launch vehicle
Mass (kg)
RCS (m²)

External: N2YO · Heavens-Above · Gunter

§ Orbital elements

Epoch: 2026-09-20T04:21:13.418784Z

Period
95.47 min
Inclination
97.6544°
Eccentricity
0.0012589
Mean motion
15.08266318 rev/d
Perigee alt
532.8 km
Apogee alt
550.2 km
Semi-major
6,919.6 km
B*
1.7634e-4
RAAN
338.5029°
Arg perigee
103.9569°
Mean anomaly
256.3060°
Rev number
2,398

§ Raw data

JILIN GAOFEN OBJECT A1 68691U 26080A   26263.18140531  .00002673  00000+0  17634-3 0  99992 68691  97.6544 338.5029 0012589 103.9569 256.3060 15.08266318 23989

JSON: /api/v1/satellites/68691 · /tle

For live sub-satellite position, see the globe view (requires WebGL).

§ Visibility from observer

Set your observer location to see the next 7 days of passes ≥ 10°. The values pass through the URL so the page stays shareable.

No JS? Fill the form by hand. The geolocation button needs JavaScript.